STARLINK-1949 (46777 NORAD) Tracking and Keplerian Element Data
This shows tracking and keplerian element data for the satellite.
Feedback or suggestion? Click here.
Element | Value |
Catalog | 46777 |
Name | STARLINK-1949 |
Epoch Orbit | 1359 |
Epoch Day | 17.91667824 |
Epoch Year | 2021 |
RAAN | 121.7789 |
Inclination | 53.0552 |
Eccentricity | 0.0004281 |
Argument of Perigee | 13.8685 |
Mean Anonmoly | 200.4854 |
Mean Motion | 15.06408151 |
Decay Rate | -0.00033414 |
L1 | 1 46777U 20074AQ 21017.91667824 -.00033414 00000-0 -22338-2 0 9995 |
L2 | 2 46777 53.0552 121.7789 0004281 13.8685 200.4854 15.06408151 13596 |
Live tracking and technical data element details for STARLINK-1949 (NORAD 46777). STARLINK-1949 can be tracked NOW for your location showing map with azimuth and elevation plus other details from your city location.
Track the satellite on the map from your city or location and see movement details for azimuth, elevation, latitude, longitude, range, height, and movement on the map or in text.
IsCatalogInMostPopularTable: catalog: 46777, numindb: 30
Update: records affected: 1
GetName: 46777 STARLINK-1949
Hit Count: updated at: Mon, 18 Jan 2021 16:17:23 GMT